Stanley, ND

6:51 AM CDT on September 28, 2016 (GMT -0500)
Stanley

Weather History for K08D - May, 2013

Change the Weather History Date:

Saturday, May 18, 2013

  Actual Average (KMOT) Record (KMOT)
Temperature  
Mean Temperature 57 °F 56 °F  
Max Temperature 64 °F 67 °F 95 °F (1941)
Min Temperature 50 °F 44 °F 20 °F (1915)
Degree Days  
Heating Degree Days 8    
Cooling Degree Days 0 0  
Month to date cooling degree days 0  
Year to date cooling degree days 1  
Growing Degree Days 7 (Base 50)    
Moisture  
Dew Point 56 °F    
Average Humidity 97    
Maximum Humidity 100    
Minimum Humidity 83    
Precipitation  
Precipitation 0.00 in 0.09 in 0.67 in (1906)
Month to date precipitation 1.31  
Year to date precipitation 4.20  
Sea Level Pressure  
Sea Level Pressure 29.85 in    
Wind  
Wind Speed 8 mph (NE)    
Max Wind Speed 14 mph    
Max Gust Speed 21 mph    
Visibility 10 miles    
Events      
T = Trace of Precipitation, MM = Missing Value Source: NWS Daily Summary

Daily Weather History Graph

Daily Weather History Graph

Search for Another Location

Airport or City:

Trip Planner

Search our weather history database for the weather conditions in past years. The results will help you decide how hot, cold, wet, or windy it might be!

Date:

Astronomy

May. 18, 2013 Rise Set
Actual Time 6:05 AM CDT 9:27 PM CDT
Civil Twilight 5:27 AM CDT 10:05 PM CDT
Nautical Twilight 4:37 AM CDT 10:55 PM CDT
Astronomical Twilight 3:32 AM CDT 12:01 AM CDT
Moon 2:00 PM CDT (5/18) 2:33 AM CDT (5/18)
Length of Visible Light 16h 37m
Length of Day
15h 21m
First Quarter, 55% of the Moon is Illuminated
May 18
First Quarter
May 24
Full
May 31
Last Quarter
Jun 8
New
Jun 16
First Quarter

Hourly Weather History & Observations

Time (CDT) Temp. Dew Point Humidity Pressure Visibility Wind Dir Wind Speed Gust Speed Precip Events Conditions
12:15 AM 59.0 °F 57.2 °F 94% 29.85 in 10.0 mi East 8.1 mph - N/A   Overcast
12:35 AM 57.2 °F 55.4 °F 94% 29.85 in 10.0 mi East 6.9 mph - N/A   Overcast
12:55 AM 57.2 °F 57.2 °F 100% 29.85 in 10.0 mi East 9.2 mph - N/A   Overcast
1:15 AM 57.2 °F 57.2 °F 100% 29.84 in 10.0 mi East 10.4 mph - N/A   Overcast
1:35 AM 57.2 °F 57.2 °F 100% 29.84 in 10.0 mi ENE 5.8 mph - N/A   Overcast
1:55 AM 57.2 °F 57.2 °F 100% 29.84 in 10.0 mi ENE 5.8 mph - N/A   Overcast
2:15 AM 57.2 °F 57.2 °F 100% 29.85 in 10.0 mi Calm Calm - N/A   Overcast
2:35 AM 57.2 °F 57.2 °F 100% 29.84 in 10.0 mi East 5.8 mph - N/A   Overcast
2:55 AM 55.4 °F 55.4 °F 100% 29.83 in 10.0 mi East 5.8 mph - N/A   Overcast
3:15 AM 55.4 °F 55.4 °F 100% 29.82 in 10.0 mi ENE 5.8 mph - N/A   Overcast
3:35 AM 55.4 °F 55.4 °F 100% 29.81 in 10.0 mi ENE 5.8 mph - N/A   Mostly Cloudy
3:55 AM 55.4 °F 55.4 °F 100% 29.81 in 10.0 mi NNE 6.9 mph - N/A   Overcast
4:15 AM 53.6 °F 53.6 °F 100% 29.81 in 10.0 mi NE 5.8 mph - N/A   Overcast
4:35 AM 53.6 °F 53.6 °F 100% 29.81 in 10.0 mi NE 5.8 mph - N/A   Overcast
4:55 AM 53.6 °F 53.6 °F 100% 29.81 in 10.0 mi NE 5.8 mph - N/A   Overcast
5:15 AM 53.6 °F 53.6 °F 100% 29.81 in 10.0 mi NNE 5.8 mph - N/A   Overcast
5:35 AM 51.8 °F 51.8 °F 100% 29.82 in 10.0 mi NNE 8.1 mph - N/A   Overcast
5:55 AM 51.8 °F 51.8 °F 100% 29.82 in 10.0 mi NNE 6.9 mph - N/A   Overcast
6:15 AM 50.0 °F 50.0 °F 100% 29.83 in 10.0 mi NNE 8.1 mph - N/A   Mostly Cloudy
6:35 AM 50.0 °F 50.0 °F 100% 29.84 in 10.0 mi NE 5.8 mph - N/A   Overcast
6:55 AM 50.0 °F 50.0 °F 100% 29.84 in 10.0 mi NE 10.4 mph - N/A   Overcast
7:15 AM 50.0 °F 50.0 °F 100% 29.85 in 10.0 mi NE 8.1 mph - N/A   Overcast
7:35 AM 50.0 °F 50.0 °F 100% 29.86 in 10.0 mi NE 6.9 mph - N/A   Overcast
7:55 AM 51.8 °F 51.8 °F 100% 29.85 in 10.0 mi NE 5.8 mph - N/A   Overcast
8:15 AM 51.8 °F 51.8 °F 100% 29.86 in 10.0 mi NNE 4.6 mph - N/A   Overcast
8:35 AM 51.8 °F 51.8 °F 100% 29.86 in 10.0 mi NNE 4.6 mph - N/A   Overcast
8:55 AM 51.8 °F 51.8 °F 100% 29.85 in 10.0 mi North 6.9 mph - N/A   Overcast
9:15 AM 51.8 °F 51.8 °F 100% 29.86 in 10.0 mi NNE 3.5 mph - N/A   Overcast
9:35 AM 53.6 °F 53.6 °F 100% 29.85 in 10.0 mi NNE 3.5 mph - N/A   Overcast
9:55 AM 53.6 °F 53.6 °F 100% 29.86 in 10.0 mi NNE 5.8 mph - N/A   Overcast
10:15 AM 53.6 °F 53.6 °F 100% 29.85 in 10.0 mi NE 5.8 mph - N/A   Overcast
10:35 AM 55.4 °F 55.4 °F 100% 29.85 in 10.0 mi North 9.2 mph - N/A   Mostly Cloudy
10:55 AM 55.4 °F 55.4 °F 100% 29.85 in 10.0 mi NNE 8.1 mph - N/A   Mostly Cloudy
11:15 AM 55.4 °F 55.4 °F 100% 29.85 in 10.0 mi NNE 9.2 mph - N/A   Overcast
11:35 AM 57.2 °F 57.2 °F 100% 29.86 in 10.0 mi NE 6.9 mph - N/A   Overcast
11:55 AM 59.0 °F 59.0 °F 100% 29.85 in 10.0 mi NNE 9.2 mph - N/A   Mostly Cloudy
12:15 PM 59.0 °F 59.0 °F 100% 29.86 in 10.0 mi NE 6.9 mph - N/A   Mostly Cloudy
12:35 PM 57.2 °F 57.2 °F 100% 29.86 in 10.0 mi NNE 10.4 mph - N/A   Overcast
12:55 PM 59.0 °F 59.0 °F 100% 29.86 in 10.0 mi NNE 9.2 mph - N/A   Overcast
1:15 PM 59.0 °F 59.0 °F 100% 29.85 in 10.0 mi NE 10.4 mph - N/A   Overcast
1:35 PM 60.8 °F 59.0 °F 94% 29.85 in 10.0 mi NE 10.4 mph - N/A   Overcast
2:15 PM 59.0 °F 59.0 °F 100% 29.85 in 10.0 mi ENE 9.2 mph - N/A   Overcast
2:35 PM 59.0 °F 59.0 °F 100% 29.86 in 10.0 mi ENE 6.9 mph - N/A   Overcast
2:55 PM 60.8 °F 59.0 °F 94% 29.86 in 10.0 mi ENE 6.9 mph - N/A   Overcast
3:15 PM 59.0 °F 59.0 °F 100% 29.86 in 10.0 mi NE 8.1 mph - N/A   Overcast
3:35 PM 62.6 °F 59.0 °F 88% 29.86 in 10.0 mi NNE 9.2 mph - N/A   Overcast
3:55 PM 62.6 °F 59.0 °F 88% 29.86 in 10.0 mi NE 6.9 mph - N/A   Mostly Cloudy
4:15 PM 62.6 °F 59.0 °F 88% 29.86 in 10.0 mi NE 6.9 mph - N/A   Overcast
4:35 PM 62.6 °F 59.0 °F 88% 29.86 in 10.0 mi NNE 10.4 mph - N/A   Mostly Cloudy
5:15 PM 64.4 °F 59.0 °F 83% 29.85 in 10.0 mi NE 8.1 mph - N/A   Overcast
5:35 PM 62.6 °F 59.0 °F 88% 29.86 in 10.0 mi ENE 10.4 mph 19.6 mph N/A   Mostly Cloudy
5:55 PM 62.6 °F 59.0 °F 88% 29.85 in 10.0 mi ENE 11.5 mph - N/A   Overcast
6:15 PM 62.6 °F 59.0 °F 88% 29.85 in 10.0 mi NE 9.2 mph - N/A   Overcast
6:35 PM 62.6 °F 59.0 °F 88% 29.86 in 10.0 mi ENE 12.7 mph 18.4 mph N/A   Mostly Cloudy
6:55 PM 62.6 °F 59.0 °F 88% 29.85 in 10.0 mi ENE 9.2 mph - N/A   Mostly Cloudy
7:15 PM 62.6 °F 59.0 °F 88% 29.85 in 10.0 mi ENE 11.5 mph 17.3 mph N/A   Mostly Cloudy
7:35 PM 62.6 °F 59.0 °F 88% 29.85 in 10.0 mi ENE 11.5 mph 18.4 mph N/A   Overcast
7:55 PM 60.8 °F 59.0 °F 94% 29.85 in 10.0 mi ENE 10.4 mph - N/A   Overcast
8:15 PM 60.8 °F 59.0 °F 94% 29.85 in 10.0 mi NE 10.4 mph 17.3 mph N/A   Overcast
8:35 PM 60.8 °F 59.0 °F 94% 29.85 in 10.0 mi NE 10.4 mph 17.3 mph N/A   Overcast
8:55 PM 59.0 °F 59.0 °F 100% 29.85 in 10.0 mi NE 10.4 mph 16.1 mph N/A   Overcast
9:15 PM 59.0 °F 59.0 °F 100% 29.85 in 10.0 mi NE 10.4 mph 17.3 mph N/A   Overcast
9:35 PM 59.0 °F 59.0 °F 100% 29.86 in 10.0 mi NE 13.8 mph 20.7 mph N/A   Overcast
9:55 PM 59.0 °F 59.0 °F 100% 29.88 in 10.0 mi NE 13.8 mph - N/A   Overcast
10:15 PM 57.2 °F 57.2 °F 100% 29.88 in 10.0 mi NE 10.4 mph 19.6 mph N/A   Overcast
10:35 PM 57.2 °F 57.2 °F 100% 29.88 in 10.0 mi NE 12.7 mph 18.4 mph N/A   Overcast
10:55 PM 57.2 °F 57.2 °F 100% 29.86 in 10.0 mi NE 11.5 mph 18.4 mph N/A   Overcast
11:15 PM 57.2 °F 57.2 °F 100% 29.88 in 10.0 mi ENE 10.4 mph - N/A   Overcast
11:35 PM 57.2 °F 57.2 °F 100% 29.87 in 10.0 mi ENE 10.4 mph 17.3 mph N/A   Overcast
11:55 PM 57.2 °F 57.2 °F 100% 29.88 in 10.0 mi ENE 11.5 mph 17.3 mph N/A   Overcast